sat.trackr.live / text

‹ back to catalog

PIESAT-2 09

NORAD 62333 · 2024-241A

PAYLOAD ACTIVE UNKNOWN

§ Identity

Operator
Country
PRC
Launch date
2024-12-16
Launch site
TAISC
Launch vehicle
Mass (kg)
RCS (m²)

External: N2YO · Heavens-Above · Gunter

§ Orbital elements

Epoch: 2026-09-22T23:31:49.575360Z

Period
95.02 min
Inclination
97.5368°
Eccentricity
0.0002127
Mean motion
15.15439235 rev/d
Perigee alt
518.2 km
Apogee alt
521.1 km
Semi-major
6,897.8 km
B*
2.5589e-4
RAAN
212.7298°
Arg perigee
93.2663°
Mean anomaly
266.8813°
Rev number
9,760

§ Raw data

PIESAT-2 091 62333U 24241A   26265.98043490  .00004771  00000+0  25589-3 0  99982 62333  97.5368 212.7298 0002127  93.2663 266.8813 15.15439235 97603

JSON: /api/v1/satellites/62333 · /tle

For live sub-satellite position, see the globe view (requires WebGL).

§ Visibility from observer

Set your observer location to see the next 7 days of passes ≥ 10°. The values pass through the URL so the page stays shareable.

No JS? Fill the form by hand. The geolocation button needs JavaScript.